1513260000.16,5969,6.63,71548.3,-10.09,-36.25,-35.47,0,*5C
1513260001.4,5970,6.63,71558.8,-10.09,-36.31,-35.53,0,*54
1513260002.66,5971,6.63,71556.8,-10.09,-36.25,-35.35,0,*50
1513260003.9,5972,6.56,71588.8,-10.09,-36.13,-35.29,0,*5B
1513260005.11,5973,6.63,71564.5,-10.15,-36.19,-35.29,0,*5D
1513260006.33,5974,6.56,71584.8,-10.15,-36.01,-35.23,0,*59
1513260007.6,5975,6.63,71588.3,-10.13,-35.95,-35.01,0,*50
1513260008.8,5976,6.56,71570.5,-10.15,-35.89,-34.89,0,*59
1513260010.05,5977,6.63,71580.0,-10.13,-35.53,-34.71,0,*5E
1513260011.28,5978,6.56,71588.0,-10.15,-35.89,-34.95,0,*5A
1513260012.51,5979,6.56,71548.0,-10.15,-35.83,-34.77,0,*5D
1513260013.71,5980,6.63,71528.3,-10.15,-35.71,-34.59,0,*5A
1513260014.9,5981,6.63,71552.3,-10.15,-35.59,-34.59,0,*51
1513260016.1,5982,6.63,71570.3,-10.15,-35.47,-34.59,0,*5D
1513260017.32,5983,6.63,71562.3,-10.15,-35.41,-34.41,0,*53
1513260018.54,5984,6.56,71578.8,-10.15,-35.13,-34.31,0,*54
1513260019.79,5985,6.56,71604.5,-10.15,-35.07,-34.31,0,*50
1513260021.01,5986,6.56,71624.0,-10.15,-35.13,-34.19,0,*5C
1513260022.24,5987,6.56,71540.3,-10.13,-35.01,-34.07,0,*57
1513260023.5,5988,6.56,71596.0,-10.13,-34.83,-34.07,0,*53
1513260024.76,5989,6.56,71600.8,-10.15,-35.07,-34.01,0,*5F
1513260026.02,5990,6.56,71576.0,-10.15,-34.83,-34.01,0,*5A
1513260027.26,5991,6.63,71582.8,-10.19,-34.89,-34.01,0,*5D
1513260028.49,5992,6.63,71564.8,-10.19,-34.89,-34.01,0,*5E
1513260029.71,5993,6.63,71548.8,-10.19,-34.71,-33.95,0,*52
1513260030.93,5994,6.56,71538.5,-10.19,-34.89,-34.19,0,*51
1513260032.18,5995,6.63,71504.3,-10.15,-34.95,-34.19,0,*51
1513260033.43,5996,6.56,71524.3,-10.15,-34.95,-34.19,0,*52
1513260034.67,5997,6.56,71570.3,-10.15,-34.71,-34.01,0,*50
1513260035.91,5998,6.56,71564.0,-10.15,-34.77,-34.01,0,*59
1513260037.12,5999,6.63,71550.5,-10.19,-34.77,-34.13,0,*57
1513260038.33,6000,6.56,71536.5,-10.19,-34.89,-34.13,0,*5C
1513260039.58,6001,6.56,71562.5,-10.21,-34.95,-34.25,0,*5E
1513260040.8,6002,6.56,71566.3,-10.15,-34.89,-34.19,0,*58
1513260042.0,6003,6.56,71570.0,-10.15,-34.89,-34.13,0,*53
1513260043.22,6004,6.56,71566.0,-10.19,-34.71,-34.13,0,*5F
1513260044.48,6005,6.56,71576.0,-10.21,-34.77,-34.01,0,*50
1513260045.75,6006,6.56,71594.8,-10.21,-34.77,-34.01,0,*53
1513260046.99,6007,6.63,71596.8,-10.19,-34.47,-34.01,0,*5A
1513260048.23,6008,6.56,71596.0,-10.21,-34.47,-33.83,0,*53
1513260049.49,6009,6.56,71592.8,-10.21,-34.41,-33.73,0,*5B
1513260050.74,6010,6.63,71596.5,-10.21,-34.25,-33.61,0,*52
1513260052.03,6011,6.56,71616.3,-10.21,-34.01,-33.49,0,*5F
1513260053.31,6012,6.56,71560.8,-10.21,-33.89,-33.49,0,*5B
1513260054.59,6013,6.63,71560.3,-10.21,-34.01,-33.49,0,*5D
1513260055.82,6014,6.63,71536.0,-10.19,-33.89,-33.55,0,*5B
1513260057.08,6015,6.63,71556.8,-10.21,-33.89,-33.37,0,*55
1513260058.36,6016,6.56,71548.0,-10.21,-33.89,-33.31,0,*50
1513260059.66,6017,6.56,71558.3,-10.21,-33.73,-33.27,0,*53
1513260060.95,6018,6.56,71590.3,-10.21,-33.73,-33.27,0,*5C
1513260062.25,6019,6.56,71622.3,-10.21,-33.73,-33.27,0,*5D
1513260063.48,6020,6.56,71650.3,-10.21,-33.55,-33.15,0,*52
1513260064.71,6021,6.63,71610.5,-10.23,-33.37,-32.97,0,*5E
1513260065.96,6022,6.56,71644.8,-10.23,-33.31,-32.97,0,*5B
1513260067.22,6023,6.56,71638.8,-10.23,-32.97,-32.79,0,*57
1513260068.47,6024,6.56,71610.0,-10.23,-32.97,-32.63,0,*5B
1513260069.7,6025,6.56,71596.0,-10.23,-32.79,-32.57,0,*5D
1513260070.96,6026,6.56,71656.5,-10.23,-32.75,-32.45,0,*51
1513260072.17,6027,6.56,71664.5,-10.23,-32.57,-32.23,0,*50
1513260073.4,6028,6.56,71678.3,-10.23,-32.45,-32.23,0,*5C
1513260074.65,6029,6.56,71648.3,-10.21,-32.29,-32.23,0,*55
1513260075.91,6030,6.63,71622.8,-10.21,-32.23,-32.07,0,*51
1513260077.17,6031,6.63,71632.5,-10.21,-32.07,-32.01,0,*50
1513260078.41,6032,6.63,71652.0,-10.23,-32.01,-31.91,0,*5D
1513260079.67,6033,6.63,71684.5,-10.23,-31.85,-31.85,0,*56
1513260080.92,6034,6.56,71516.3,-10.21,-31.67,-31.57,0,*50
1513260082.12,6035,6.63,71580.8,-10.23,-31.67,-31.67,0,*50
1513260083.38,6036,6.56,71576.5,-10.23,-31.39,-31.39,0,*53
1513260084.61,6037,6.56,71522.3,-10.21,-31.33,-31.17,0,*56
1513260085.82,6038,6.56,71512.8,-10.19,-31.01,-31.01,0,*54
1513260087.03,6039,6.56,71556.8,-10.19,-31.29,-31.17,0,*58
1513260088.31,6040,6.56,71550.8,-10.21,-31.51,-31.39,0,*5E
1513260089.52,6041,6.56,71544.8,-10.19,-31.33,-31.29,0,*51
1513260090.73,6042,6.56,71562.0,-10.19,-31.17,-31.29,0,*54
1513260091.95,6043,6.63,71548.3,-10.19,-31.17,-31.29,0,*55
1513260093.18,6044,6.56,71618.8,-10.19,-31.05,-31.23,0,*5B
1513260094.44,6045,6.56,71640.0,-10.19,-30.89,-31.11,0,*5E
1513260095.7,6046,6.63,71664.3,-10.15,-30.89,-31.11,0,*51
1513260096.95,6047,6.63,71710.8,-10.15,-30.77,-31.11,0,*51
1513260098.21,6048,6.56,71644.5,-10.15,-30.61,-30.89,0,*59
1513260099.45,6049,6.56,71622.0,-10.15,-30.55,-30.95,0,*52
1513260100.71,6050,6.56,71590.5,-10.15,-30.39,-30.77,0,*5C
1513260101.96,6051,6.56,71664.8,-10.15,-30.39,-30.89,0,*5C
1513260103.23,6052,6.56,71614.0,-10.13,-30.51,-30.83,0,*5D
1513260104.46,6053,6.56,71592.8,-10.15,-30.11,-30.73,0,*51
1513260105.7,6054,6.56,71590.5,-10.13,-30.23,-30.67,0,*54
1513260106.99,6055,6.56,71560.3,-10.13,-30.05,-30.73,0,*54
1513260108.26,6056,6.56,71548.5,-10.13,-30.39,-30.95,0,*50
1513260109.54,6057,6.56,71624.0,-10.13,-30.39,-30.89,0,*5C
1513260110.82,6058,6.63,71596.5,-10.13,-30.51,-31.11,0,*5D
1513260112.06,6059,6.56,71594.0,-10.09,-30.61,-31.17,0,*52
1513260113.3,6060,6.56,71590.5,-10.07,-30.67,-31.33,0,*56
1513260114.54,6061,6.63,71598.5,-10.09,-30.61,-31.17,0,*59
1513260115.77,6062,6.56,71620.5,-10.09,-30.51,-31.01,0,*5E
1513260116.98,6063,6.63,71602.5,-10.09,-30.45,-30.83,0,*51
1513260118.2,6064,6.56,71586.3,-10.09,-30.33,-30.83,0,*57
1513260119.48,6065,6.56,71596.5,-10.09,-30.17,-30.77,0,*5B
1513260120.75,6066,6.56,71568.8,-10.09,-30.17,-30.77,0,*58
1513260122.02,6067,6.56,71574.0,-10.07,-30.27,-30.77,0,*54
1513260123.25,6068,6.63,71604.3,-10.09,-30.27,-30.83,0,*5E
1513260124.47,6069,6.56,71608.5,-10.09,-30.27,-30.83,0,*5F
1513260125.69,6070,6.63,71594.5,-10.09,-30.11,-30.67,0,*58
1513260126.94,6071,6.56,71584.3,-10.09,-29.95,-30.51,0,*58
1513260128.17,6072,6.56,71586.0,-10.09,-29.73,-30.27,0,*52
1513260129.44,6073,6.56,71576.8,-10.09,-29.73,-30.17,0,*50
1513260130.68,6074,6.63,71598.5,-10.07,-29.79,-30.33,0,*55
1513260131.9,6075,6.56,71618.0,-10.09,-29.79,-30.33,0,*5A
1513260133.13,6076,6.56,71602.5,-10.07,-29.61,-30.27,0,*5B
1513260134.35,6077,6.56,71600.8,-10.09,-29.61,-30.33,0,*51
1513260135.57,6078,6.56,71636.5,-10.05,-29.57,-30.27,0,*52
1513260136.79,6079,6.56,71598.0,-10.09,-29.45,-30.27,0,*5C
1513260138.04,6080,6.56,71698.0,-10.09,-29.45,-30.17,0,*59
1513260139.28,6081,6.56,71676.3,-10.09,-29.29,-29.83,0,*57
1513260140.51,6082,6.56,71680.3,-10.09,-29.13,-29.95,0,*5A
1513260141.75,6083,6.56,71658.3,-10.09,-29.29,-29.95,0,*52
1513260143.01,6084,6.56,71654.8,-10.07,-28.97,-29.73,0,*57
1513260144.22,6085,6.56,71654.0,-10.09,-28.97,-29.61,0,*5B
1513260145.43,6086,6.56,71650.8,-10.09,-29.07,-29.83,0,*5C
1513260146.7,6087,6.56,71644.3,-10.09,-28.79,-29.73,0,*5A
1513260147.93,6088,6.56,71680.3,-10.09,-28.79,-29.61,0,*56
1513260149.19,6089,6.56,71660.3,-10.09,-28.75,-29.73,0,*58
1513260150.45,6090,6.56,71682.5,-10.05,-28.91,-29.73,0,*56
1513260151.69,6091,6.56,71640.3,-10.09,-28.75,-29.61,0,*52
1513260152.95,6092,6.56,71648.3,-10.09,-28.75,-29.73,0,*52
1513260154.16,6093,6.56,71652.5,-10.09,-28.69,-29.61,0,*5D
1513260155.38,6094,6.56,71648.3,-10.09,-28.53,-29.57,0,*56
1513260156.6,6095,6.56,71666.3,-10.09,-28.53,-29.57,0,*57
1513260157.83,6096,6.63,71642.0,-10.09,-28.43,-29.45,0,*56
1513260159.09,6097,6.56,71634.8,-10.07,-28.37,-29.39,0,*51
1513260160.35,6098,6.63,71654.8,-10.09,-28.21,-29.13,0,*5F
1513260161.59,6099,6.56,71662.0,-10.09,-28.05,-29.07,0,*5D
1513260162.84,6100,6.56,71696.0,-10.07,-28.09,-29.07,0,*5E
1513260164.1,6101,6.56,71690.8,-10.07,-28.05,-28.97,0,*5B
1513260165.35,6102,6.56,71690.8,-10.07,-28.05,-29.23,0,*56
1513260166.58,6103,6.56,71706.8,-10.07,-27.93,-29.07,0,*51
1513260167.81,6104,6.56,71702.5,-10.07,-27.89,-28.97,0,*55
1513260169.04,6105,6.56,71704.8,-10.09,-27.77,-28.79,0,*5B
1513260170.28,6106,6.56,71698.5,-10.09,-27.77,-28.79,0,*58
1513260171.49,6107,6.56,71684.3,-10.09,-27.77,-28.97,0,*59
1513260172.71,6108,6.56,71668.0,-10.07,-27.89,-28.97,0,*59
1513260173.92,6109,6.63,71668.8,-10.09,-27.89,-28.97,0,*56
1513260175.19,6110,6.63,71702.5,-10.09,-27.61,-28.75,0,*54
1513260176.44,6111,6.56,71710.3,-10.07,-27.51,-28.75,0,*58
1513260177.72,6112,6.56,71662.0,-10.07,-27.39,-28.59,0,*5B
1513260178.99,6113,6.56,71646.5,-10.09,-27.35,-28.59,0,*58
1513260180.24,6114,6.56,71642.5,-10.07,-27.23,-28.53,0,*5C
1513260181.52,6115,6.56,71666.3,-10.07,-27.23,-28.43,0,*5C
1513260182.78,6116,6.56,71612.8,-10.09,-27.19,-28.43,0,*58
1513260184.01,6117,6.63,71640.3,-10.07,-27.07,-28.37,0,*5B
1513260185.27,6118,6.56,71658.0,-10.07,-26.87,-28.21,0,*5A
1513260186.53,6119,6.56,71624.5,-10.07,-26.87,-28.09,0,*51
1513260187.79,6120,6.56,71624.3,-10.07,-26.61,-28.09,0,*53
1513260189.05,6121,6.56,71588.8,-10.07,-26.61,-28.05,0,*5E
1513260190.31,6122,6.56,71588.8,-10.05,-26.77,-28.21,0,*5E
1513260191.57,6123,6.56,71642.3,-10.07,-26.61,-28.05,0,*5C
1513260192.86,6124,6.56,71652.5,-10.07,-26.55,-28.05,0,*5C
1513260194.15,6125,6.56,71628.0,-10.07,-26.33,-28.05,0,*5D
1513260195.39,6126,6.63,71594.5,-10.05,-26.33,-27.93,0,*5C
1513260196.62,6127,6.56,71640.8,-10.05,-26.39,-28.09,0,*5B
1513260197.86,6128,6.56,71582.8,-10.05,-26.39,-28.05,0,*58
1513260199.12,6129,6.63,71604.8,-10.03,-25.97,-27.55,0,*52
1513260200.32,6130,6.56,71664.8,-10.05,-26.23,-27.77,0,*50
1513260201.56,6131,6.63,71646.3,-10.05,-26.33,-27.89,0,*51
1513260202.79,6132,6.56,71574.5,-10.05,-26.49,-28.05,0,*54
1513260204.05,6133,6.56,71622.0,-10.05,-26.71,-28.09,0,*52
1513260205.33,6134,6.56,71568.8,-10.03,-26.55,-28.05,0,*59
1513260206.62,6135,6.56,71580.0,-10.03,-26.71,-28.05,0,*5E
1513260207.88,6136,6.56,71562.8,-10.03,-26.87,-28.21,0,*52
1513260209.14,6137,6.56,71546.5,-10.03,-26.87,-28.21,0,*53
1513260210.4,6138,6.56,71550.5,-10.05,-26.93,-28.25,0,*5B
1513260211.69,6139,6.56,71542.5,-10.03,-26.97,-28.09,0,*56
1513260212.93,6140,6.63,71564.0,-10.05,-26.77,-27.89,0,*57
1513260214.15,6141,6.63,71554.3,-10.05,-26.71,-27.77,0,*51
1513260215.36,6142,6.56,71530.8,-10.05,-26.61,-27.71,0,*55
1513260216.57,6143,6.63,71510.5,-10.05,-26.61,-27.77,0,*52
1513260217.82,6144,6.63,71462.0,-10.03,-26.71,-27.67,0,*53
1513260219.08,6145,6.56,71502.8,-10.03,-26.71,-27.67,0,*52
1513260220.29,6146,6.56,71584.8,-10.05,-26.39,-27.55,0,*5A
1513260221.54,6147,6.63,71576.8,-10.03,-26.45,-27.45,0,*57
1513260222.75,6148,6.56,71562.3,-10.05,-26.49,-27.51,0,*57
1513260224.02,6149,6.63,71538.8,-10.03,-26.33,-27.51,0,*5D
1513260225.28,6150,6.63,71574.0,-10.03,-26.49,-27.35,0,*5A
1513260226.54,6151,6.56,71576.3,-10.03,-26.29,-27.29,0,*50
1513260227.83,6152,6.63,71574.5,-10.03,-26.33,-27.23,0,*52
1513260229.1,6153,6.56,71542.0,-10.05,-26.33,-27.19,0,*5C
1513260230.39,6154,6.56,71548.5,-10.03,-25.97,-26.81,0,*50
1513260231.65,6155,6.56,71550.5,-10.03,-25.39,-26.29,0,*57
1513260232.93,6156,6.56,71522.0,-10.03,-25.29,-26.13,0,*5C
1513260234.16,6157,6.56,71514.8,-10.03,-25.49,-26.45,0,*58
1513260235.39,6158,6.56,71476.8,-10.03,-25.65,-26.49,0,*55
1513260236.6,6159,6.63,71526.8,-10.01,-25.61,-26.39,0,*55
1513260237.85,6160,6.56,71582.0,-10.01,-25.49,-26.29,0,*54
1513260239.07,6161,6.56,71574.5,-10.01,-25.45,-26.23,0,*53
1513260240.31,6162,6.63,71548.3,-10.01,-25.61,-26.29,0,*5C
1513260241.57,6163,6.56,71530.8,-10.01,-25.45,-25.97,0,*5D
1513260242.79,6164,6.56,71492.5,-9.99,-25.35,-25.91,0,*62
1513260244.05,6165,6.56,71510.0,-10.01,-25.29,-25.81,0,*56
1513260245.32,6166,6.56,71544.0,-9.99,-25.29,-25.75,0,*67
1513260246.56,6167,6.63,71518.0,-10.01,-25.29,-25.65,0,*5E
1513260247.79,6168,6.56,71588.5,-9.99,-25.23,-25.61,0,*66
1513260249.02,6169,6.63,71556.3,-9.99,-25.13,-25.61,0,*64
1513260250.25,6170,6.63,71612.0,-9.99,-25.23,-25.61,0,*6F
1513260251.49,6171,6.56,71556.0,-9.99,-25.23,-25.49,0,*64
1513260252.72,6172,6.56,71578.5,-9.99,-25.23,-25.49,0,*67
1513260253.95,6173,6.63,71598.3,-9.99,-25.23,-25.49,0,*66
1513260255.18,6174,6.56,71584.8,-9.99,-25.23,-25.49,0,*61
1513260256.41,6175,6.56,71644.0,-9.99,-25.23,-25.49,0,*60
1513260257.61,6176,6.56,71608.5,-9.97,-25.09,-25.19,0,*60
1513260258.82,6177,6.56,71538.5,-10.01,-24.97,-25.09,0,*51
1513260260.08,6178,6.56,71572.0,-9.99,-24.83,-25.09,0,*62
1513260261.3,6179,6.63,71588.3,-9.99,-24.93,-24.97,0,*64
1513260262.52,6180,6.56,71598.0,-9.99,-25.09,-24.97,0,*60
1513260263.74,6181,6.63,71606.8,-9.99,-24.97,-24.97,0,*67
1513260264.96,6182,6.56,71632.8,-9.99,-24.93,-24.93,0,*64
1513260266.21,6183,6.56,71610.8,-9.97,-25.03,-24.87,0,*66
1513260267.46,6184,6.56,71654.3,-9.97,-24.87,-24.87,0,*6C
1513260268.7,6185,6.63,71644.8,-9.97,-24.77,-24.71,0,*6B
1513260269.94,6186,6.63,71562.5,-9.97,-24.71,-24.61,0,*6F
1513260271.14,6187,6.56,71606.3,-9.97,-24.57,-24.57,0,*6F
1513260272.35,6188,6.63,71668.3,-9.97,-24.47,-24.57,0,*61
1513260273.59,6189,6.56,71634.5,-9.97,-24.47,-24.41,0,*67
1513260274.82,6190,6.56,71620.3,-9.97,-24.47,-24.41,0,*6F
1513260276.03,6191,6.56,71642.0,-9.97,-24.47,-24.47,0,*68
1513260277.24,6192,6.63,71642.0,-9.97,-24.57,-24.31,0,*6B
1513260278.49,6193,6.63,71598.8,-9.95,-24.57,-24.41,0,*6F
1513260279.74,6194,6.56,71562.3,-9.95,-24.41,-24.31,0,*68
1513260281.0,6195,6.56,71622.3,-9.95,-24.25,-24.05,0,*6C
1513260282.24,6196,6.56,71594.8,-9.97,-24.31,-24.21,0,*6E
1513260283.52,6197,6.56,71556.8,-9.95,-24.41,-24.25,0,*6E
1513260284.75,6198,6.56,71574.8,-9.97,-24.31,-24.11,0,*63
1513260286.01,6199,6.56,71560.8,-9.97,-24.41,-24.25,0,*62
1513260287.24,6200,6.63,71596.0,-9.97,-24.31,-24.11,0,*61
1513260288.45,6201,6.63,71522.5,-9.97,-24.05,-23.79,0,*6E
1513260289.68,6202,6.56,71480.3,-9.97,-23.79,-23.49,0,*62
1513260290.91,6203,6.56,71494.3,-9.95,-23.59,-23.43,0,*69
1513260292.16,6204,6.56,71508.0,-9.95,-23.65,-23.43,0,*61
1513260293.42,6205,6.56,71494.0,-9.95,-23.65,-23.43,0,*60
1513260294.65,6206,6.56,71520.0,-9.97,-23.59,-23.33,0,*69
1513260295.9,6207,6.56,71530.5,-9.95,-23.43,-23.29,0,*6A
1513260297.12,6208,6.63,71552.8,-9.91,-23.39,-23.09,0,*6E
1513260298.38,6209,6.56,71620.5,-9.91,-23.43,-23.29,0,*60
1513260299.63,6210,6.56,71656.3,-9.91,-23.53,-23.39,0,*68
1513260300.86,6211,6.56,71670.3,-9.95,-23.75,-23.43,0,*64
1513260302.14,6212,6.63,71682.0,-9.95,-23.65,-23.49,0,*6C
1513260303.41,6213,6.56,71610.0,-9.95,-23.65,-23.49,0,*6D
1513260304.64,6214,6.63,71666.3,-9.97,-23.79,-23.49,0,*65
1513260305.89,6215,6.63,71596.5,-9.95,-23.59,-23.29,0,*62
1513260307.17,6216,6.63,71588.8,-9.95,-23.49,-23.23,0,*6A
1513260308.43,6217,6.56,71576.5,-9.95,-23.43,-23.23,0,*61
1513260309.71,6218,6.56,71520.5,-9.95,-23.49,-23.23,0,*64
1513260310.96,6219,6.56,71532.3,-9.95,-23.59,-23.29,0,*6E
1513260312.21,6220,6.63,71558.3,-9.91,-23.43,-23.29,0,*6B
1513260313.46,6221,6.56,71546.3,-9.91,-23.59,-23.29,0,*61
1513260314.72,6222,6.56,71586.8,-9.91,-23.59,-23.23,0,*68
1513260315.92,6223,6.56,71580.3,-9.89,-23.59,-23.39,0,*6B
1513260317.17,6224,6.56,71584.3,-9.91,-23.29,-22.93,0,*63
1513260318.41,6225,6.56,71520.0,-9.89,-23.59,-23.23,0,*66
1513260319.69,6226,6.56,71454.3,-9.91,-23.53,-23.19,0,*6F
1513260320.94,6227,6.56,71508.8,-9.91,-23.39,-23.03,0,*69
1513260322.19,6228,6.56,71534.8,-9.91,-23.29,-22.93,0,*6F
1513260323.45,6229,6.56,71490.0,-9.91,-23.53,-23.09,0,*61
1513260324.68,6230,6.56,71492.8,-9.89,-23.59,-23.19,0,*6B
1513260325.94,6231,6.56,71486.0,-9.91,-23.75,-23.19,0,*6D
1513260327.19,6232,6.56,71502.3,-9.91,-23.75,-23.29,0,*6D
1513260328.43,6233,6.56,71524.0,-9.89,-23.75,-23.23,0,*6F
1513260329.67,6234,6.56,71560.0,-9.89,-23.75,-23.23,0,*68
1513260330.89,6235,6.56,71616.8,-9.89,-23.69,-23.09,0,*6C
1513260332.14,6236,6.56,71612.8,-9.89,-23.69,-23.03,0,*65
1513260333.34,6237,6.56,71674.0,-9.89,-23.59,-23.09,0,*6D
1513260334.57,6238,6.56,71656.3,-9.89,-23.59,-23.03,0,*68
1513260335.83,6239,6.56,71562.0,-9.91,-23.59,-23.03,0,*60
1513260337.06,6240,6.56,71554.3,-9.89,-23.59,-23.03,0,*67
1513260338.31,6241,6.56,71560.5,-9.87,-23.53,-22.83,0,*6B
1513260339.53,6242,6.63,71638.5,-9.89,-23.69,-23.09,0,*6C
1513260340.74,6243,6.56,71590.8,-9.89,-23.59,-22.93,0,*6C
1513260341.99,6244,6.63,71582.0,-9.87,-23.49,-22.83,0,*65
1513260343.24,6245,6.56,71616.8,-9.87,-23.65,-22.83,0,*6A
1513260344.49,6246,6.56,71624.5,-9.87,-23.53,-22.87,0,*68
1513260345.7,6247,6.56,71612.8,-9.89,-23.59,-22.93,0,*68
1513260346.93,6248,6.63,71666.0,-9.89,-23.75,-23.03,0,*61
1513260348.18,6249,6.63,71582.5,-9.91,-23.69,-22.87,0,*69
1513260349.38,6250,6.56,71646.0,-9.89,-23.59,-22.87,0,*6B
1513260350.59,6251,6.56,71604.3,-9.89,-23.75,-22.93,0,*61
1513260351.83,6252,6.56,71588.5,-9.87,-23.69,-22.83,0,*60
1513260353.05,6253,6.56,71612.3,-9.89,-23.69,-22.87,0,*6B
1513260354.28,6254,6.56,71596.8,-9.91,-23.59,-22.93,0,*63
1513260355.51,6255,6.56,71532.5,-9.89,-23.53,-22.87,0,*64
1513260356.74,6256,6.56,71550.0,-9.89,-23.29,-22.57,0,*67
1513260357.96,6257,6.56,71594.8,-9.89,-23.29,-22.57,0,*66
1513260359.16,6258,6.63,71622.5,-9.89,-23.39,-22.63,0,*6F
1513260360.42,6259,6.56,71616.8,-9.89,-23.23,-22.47,0,*63
1513260361.66,6260,6.56,71616.0,-9.87,-23.23,-22.41,0,*61
1513260362.88,6261,6.56,71636.3,-9.87,-23.39,-22.57,0,*6C
1513260364.15,6262,6.56,71668.0,-9.87,-23.65,-22.73,0,*60
1513260365.38,6263,6.56,71636.8,-9.85,-23.65,-22.83,0,*6C
1513260366.6,6264,6.56,71640.8,-9.85,-23.69,-22.87,0,*63
1513260367.85,6265,6.56,71648.5,-9.87,-23.85,-22.97,0,*63
1513260369.05,6266,6.56,71676.3,-9.89,-23.89,-22.87,0,*63
1513260370.27,6267,6.56,71632.8,-9.87,-23.79,-22.87,0,*63
1513260371.5,6268,6.56,71660.0,-9.87,-23.79,-22.87,0,*6C
1513260372.75,6269,6.63,71668.8,-9.87,-23.85,-22.83,0,*6A
1513260374.0,6270,6.56,71668.3,-9.87,-23.85,-22.87,0,*66
1513260375.23,6271,6.56,71690.8,-9.85,-23.95,-22.97,0,*65
1513260376.48,6272,6.56,71704.5,-9.87,-23.95,-22.97,0,*64
1513260377.71,6273,6.63,71680.0,-9.87,-23.79,-22.83,0,*62
1513260378.93,6274,6.56,71692.8,-9.87,-23.79,-22.87,0,*61
1513260380.21,6275,6.56,71686.0,-9.87,-23.99,-23.03,0,*63
1513260381.46,6276,6.63,71706.8,-9.87,-24.15,-22.97,0,*6F
1513260382.74,6277,6.56,71714.5,-9.87,-24.15,-23.19,0,*69
1513260383.99,6278,6.56,71682.8,-9.87,-24.11,-22.97,0,*65
1513260385.22,6279,6.56,71680.3,-9.85,-24.11,-22.97,0,*66
1513260386.5,6280,6.56,71692.8,-9.87,-24.15,-23.03,0,*6A
1513260387.75,6281,6.56,71678.8,-9.85,-24.15,-23.03,0,*69
1513260389.03,6282,6.56,71712.3,-9.87,-24.21,-23.19,0,*64
1513260390.29,6283,6.56,71658.5,-9.87,-24.21,-23.13,0,*6F
1513260391.55,6284,6.56,71648.5,-9.87,-24.31,-23.23,0,*6A
1513260392.78,6285,6.56,71650.3,-9.85,-24.47,-23.33,0,*69
1513260394.01,6286,6.56,71652.8,-9.85,-24.35,-23.33,0,*6F
1513260395.26,6287,6.56,71656.3,-9.87,-24.51,-23.33,0,*6E
1513260396.49,6288,6.56,71642.5,-9.85,-24.61,-23.33,0,*60
1513260397.72,6289,6.56,71658.0,-9.85,-24.61,-23.33,0,*61
1513260398.94,6290,6.56,71644.8,-9.87,-24.77,-23.39,0,*66
1513260400.21,6291,6.63,71656.5,-9.87,-24.67,-23.49,0,*61
1513260401.47,6292,6.56,71614.5,-9.87,-24.77,-23.49,0,*63
1513260402.74,6293,6.56,71610.5,-9.87,-24.83,-23.65,0,*67
1513260403.96,6294,6.56,71588.0,-9.89,-24.97,-23.65,0,*6B
1513260405.21,6295,6.56,71580.5,-9.85,-24.83,-23.53,0,*66
1513260406.42,6296,6.56,71620.0,-9.85,-24.93,-23.53,0,*64
1513260407.67,6297,6.56,71650.8,-9.87,-24.83,-23.39,0,*6A
1513260408.9,6298,6.56,71618.5,-9.85,-24.83,-23.39,0,*67
1513260410.15,6299,6.56,71606.8,-9.87,-24.83,-23.39,0,*64
1513260411.4,6300,6.56,71590.3,-9.87,-24.83,-23.39,0,*65
1513260412.65,6301,6.56,71616.3,-9.87,-24.77,-23.33,0,*65
1513260413.92,6302,6.56,71606.5,-9.87,-24.83,-23.33,0,*6D
1513260415.18,6303,6.56,71604.3,-9.87,-24.83,-23.39,0,*66
1513260416.39,6304,6.56,71614.3,-9.87,-24.97,-23.39,0,*64
1513260417.61,6305,6.56,71644.0,-9.87,-25.09,-23.39,0,*63
1513260418.8,6306,6.56,71642.0,-9.85,-24.93,-23.39,0,*60
1513260420.04,6307,6.63,71664.0,-9.87,-24.93,-23.33,0,*69
1513260421.32,6308,6.56,71664.5,-9.87,-24.83,-23.33,0,*67
1513260422.6,6309,6.56,71658.3,-9.87,-24.83,-23.23,0,*67
1513260423.88,6310,6.56,71668.0,-9.87,-24.83,-23.23,0,*6F
1513260425.1,6311,6.56,71648.5,-9.89,-24.87,-23.39,0,*6F
1513260426.36,6312,6.56,71644.0,-9.87,-24.77,-23.19,0,*6F
1513260427.63,6313,6.56,71668.5,-9.87,-24.67,-23.19,0,*6F
1513260428.88,6314,6.56,71670.5,-9.87,-24.67,-23.13,0,*62
1513260430.15,6315,6.56,71684.5,-9.89,-24.71,-23.19,0,*60
1513260431.4,6316,6.56,71676.8,-9.89,-24.67,-23.19,0,*64
1513260432.65,6317,6.56,71680.8,-9.89,-24.67,-23.19,0,*65
1513260433.91,6318,6.56,71676.8,-9.89,-24.67,-23.19,0,*6A
1513260435.14,6319,6.56,71660.3,-9.89,-24.57,-23.19,0,*68
1513260436.37,6320,6.56,71648.3,-9.91,-24.57,-23.09,0,*6A
1513260437.63,6321,6.56,71616.0,-9.91,-24.57,-23.19,0,*6A
1513260438.91,6322,6.56,71580.3,-9.91,-24.67,-23.19,0,*6A
1513260440.16,6323,6.56,71582.3,-9.91,-24.57,-23.19,0,*68
1513260441.42,6324,6.56,71570.0,-9.91,-24.57,-23.19,0,*6F
1513260442.66,6325,6.56,71572.3,-9.91,-24.51,-23.09,0,*69
1513260443.94,6326,6.56,71578.5,-9.91,-24.41,-23.03,0,*61
1513260445.17,6327,6.56,71586.8,-9.89,-24.41,-22.93,0,*61
1513260446.41,6328,6.56,71564.8,-9.91,-24.51,-22.87,0,*63
1513260447.64,6329,6.56,71614.3,-9.89,-24.41,-22.87,0,*6A
1513260448.9,6330,6.56,71642.0,-9.91,-24.41,-22.87,0,*6B
1513260450.18,6331,6.56,71652.5,-9.91,-24.41,-22.77,0,*65
1513260451.44,6332,6.56,71662.8,-9.91,-24.35,-22.73,0,*61
1513260452.72,6333,6.56,71614.0,-9.95,-24.41,-22.77,0,*63
1513260454.0,6334,6.56,71602.8,-9.95,-24.41,-22.77,0,*64
1513260455.23,6335,6.56,71632.0,-9.95,-24.31,-22.67,0,*63
1513260456.47,6336,6.56,71624.3,-9.95,-24.31,-22.63,0,*64
1513260457.7,6337,6.56,71614.5,-9.95,-24.31,-22.67,0,*61
1513260458.95,6338,6.56,71584.0,-9.95,-24.41,-22.67,0,*69
1513260460.19,6339,6.56,71612.5,-9.95,-24.31,-22.63,0,*6B
1513260461.42,6340,6.56,71640.0,-9.95,-24.31,-22.63,0,*65
1513260462.69,6341,6.56,71572.5,-9.97,-24.25,-22.47,0,*65
1513260463.96,6342,6.56,71588.5,-9.97,-24.25,-22.47,0,*66
1513260465.19,6343,6.56,71596.0,-9.97,-24.21,-22.37,0,*64
1513260466.42,6344,6.56,71598.0,-9.97,-24.05,-22.21,0,*62
1513260467.7,6345,6.56,71618.3,-9.95,-23.95,-22.17,0,*6A
1513260468.91,6346,6.56,71626.8,-9.97,-23.89,-22.03,0,*63
1513260470.15,6347,6.56,71650.0,-9.97,-23.75,-21.87,0,*6E
1513260471.35,6348,6.56,71600.3,-9.97,-23.75,-21.73,0,*6A
1513260472.58,6349,6.56,71562.5,-9.97,-23.59,-21.67,0,*60
1513260473.86,6350,6.56,71506.3,-9.95,-23.49,-21.53,0,*6C
1513260475.09,6351,6.56,71520.5,-9.97,-23.29,-21.17,0,*69
1513260476.32,6352,6.56,71572.5,-9.97,-23.29,-21.09,0,*65
1513260477.54,6353,6.56,71546.0,-9.97,-23.29,-21.09,0,*64
1513260478.77,6354,6.56,71564.5,-9.95,-23.13,-20.93,0,*6A
1513260479.98,6355,6.56,71622.8,-9.97,-22.97,-20.73,0,*6A
1513260481.21,6356,6.56,71574.8,-9.95,-22.67,-20.63,0,*65
1513260482.44,6357,6.56,71534.0,-9.97,-22.63,-20.49,0,*6A
1513260483.7,6358,6.56,71546.0,-9.95,-22.47,-20.43,0,*6B
1513260484.93,6359,6.56,71554.3,-9.95,-22.37,-20.43,0,*6D
1513260486.19,6360,6.56,71572.5,-9.95,-22.47,-20.43,0,*60
1513260487.43,6361,6.56,71570.5,-9.95,-22.37,-20.43,0,*66
1513260488.68,6362,6.56,71544.5,-9.95,-22.37,-20.35,0,*64
1513260489.9,6363,6.56,71524.5,-9.97,-21.97,-20.09,0,*61
1513260491.13,6364,6.56,71610.0,-9.91,-22.07,-20.09,0,*6A
1513260492.38,6365,6.56,71600.8,-9.95,-22.11,-20.19,0,*69
1513260493.63,6366,6.56,71544.8,-9.97,-21.97,-20.19,0,*65
1513260494.9,6367,6.56,71606.0,-9.95,-21.97,-20.15,0,*6A
1513260496.13,6368,6.56,71596.0,-9.95,-21.73,-19.95,0,*6D
1513260497.36,6369,6.56,71526.3,-9.91,-21.77,-19.75,0,*62
1513260498.61,6370,6.56,71470.3,-9.91,-21.67,-19.51,0,*6D
1513260499.84,6371,6.56,71506.8,-9.91,-21.39,-19.37,0,*67
1513260501.07,6372,6.56,71528.5,-9.89,-21.33,-19.17,0,*65
1513260502.29,6373,6.56,71564.8,-9.89,-21.33,-19.17,0,*64
1513260503.54,6374,6.56,71612.0,-9.89,-21.33,-19.23,0,*64
1513260504.78,6375,6.56,71554.3,-9.89,-21.33,-19.23,0,*65
1513260506.06,6376,6.56,71588.8,-9.87,-21.27,-19.27,0,*69
1513260507.31,6377,6.56,71554.0,-9.87,-21.27,-19.13,0,*6F
1513260508.54,6378,6.56,71562.0,-9.87,-21.17,-19.13,0,*63
1513260509.75,6379,6.56,71624.8,-9.87,-21.09,-18.99,0,*6E